User: anonymous   Login
Location: Unspecified
(0.0000°N, 0.0000°E)
Time: 08:48:44
(UTC+00:00)
Language:

STARLINK-35684 - Orbit

View from above orbital plane
View from above orbital plane
View from above satellite
View from above satellite

Ground track
Ground track

The orbit is defined by the following mean orbital elements,

1 66458U          26145.51845208 +.00000000 +00000-0 +95203-3 0 00005
2 66458  42.9997 222.5230 0001734 284.8904  75.1756 15.27594556    07
Epoch (UTC): 25 May 2026 12:26:34
Eccentricity: 0.0001734
inclination: 42.9997°
perigee height: 482 km
apogee height: 484 km
right ascension of ascending node: 222.5230°
argument of perigee: 284.8904°
revolutions per day: 15.27594556
mean anomaly at epoch: 75.1756°

The dashed part of the orbit path shows where the satellite is in the earth's shadow,  

DLR